DW8199 Weather Reports


Display with metric or nautical units.
time (UTC)temp
F
wind
direction
speed
MPH
gust
MPH
rain 1hr
in
rain 24hr
in
rain mn
in
humidity
%
barometer
mb
20260903193016 94 221 2.0 10.0 0.00 0.00 0.00 60 1014.6
20260903192016 94 245 2.0 11.0 0.00 0.00 0.00 60 1015.1
20260903191016 94 248 2.0 5.0 0.00 0.00 0.00 60 1015.5
20260903190017 94 197 2.0 5.0 0.00 0.00 0.00 59 1015.6
20260903185016 94 210 2.0 6.0 0.00 0.00 0.00 61 1015.7
20260903184016 94 243 1.0 6.0 0.00 0.00 0.00 62 1015.9
20260903183016 94 240 1.0 5.0 0.00 0.00 0.00 62 1016.0
20260903182016 94 227 2.0 6.0 0.00 0.00 0.00 61 1016.1
20260903181016 93 196 1.0 6.0 0.00 0.00 0.00 64 1016.2
20260903180016 92 211 2.0 6.0 0.00 0.00 0.00 62 1016.4
20260903175016 93 140 1.0 4.0 0.00 0.00 0.00 63 1016.5
20260903174016 92 223 1.0 5.0 0.00 0.00 0.00 63 1016.7
20260903173016 92 230 1.0 5.0 0.00 0.00 0.00 64 1016.8
20260903172016 92 201 2.0 5.0 0.00 0.00 0.00 64 1016.9
20260903171016 92 259 1.0 3.0 0.00 0.00 0.00 63 1016.9
20260903170016 92 166 1.0 4.0 0.00 0.00 0.00 64 1017.0
20260903165037 92 152 0.0 3.0 0.00 0.00 0.00 64 1017.1
20260903164016 92 178 1.0 6.0 0.00 0.00 0.00 64 1017.1
20260903163016 91 239 0.0 3.0 0.00 0.00 0.00 66 1017.0
20260903162016 89 250 0.0 3.0 0.00 0.00 0.00 70 1017.1
20260903161016 89 63 1.0 5.0 0.00 0.00 0.00 70 1017.2
20260903160036 89 240 2.0 4.0 0.00 0.00 0.00 69 1017.2
20260903155016 88 220 1.0 3.0 0.00 0.00 0.00 72 1017.3
20260903154016 87 218 2.0 4.0 0.00 0.00 0.00 73 1017.4
20260903153036 86 226 2.0 5.0 0.00 0.00 0.00 75 1017.4
20260903152036 85 78 1.0 3.0 0.00 0.00 0.00 77 1017.4
20260903151016 84 128 1.0 3.0 0.00 0.00 0.00 77 1017.4
20260903150036 83 140 0.0 4.0 0.00 0.00 0.00 80 1017.5
20260903145056 82 242 0.0 4.0 0.00 0.00 0.00 81 1017.4
20260903144036 81 218 1.0 4.0 0.00 0.00 0.00 83 1017.5
20260903143016 81 115 1.0 3.0 0.00 0.00 0.00 83 1017.4
20260903142016 81 59 1.0 4.0 0.00 0.00 0.00 83 1017.5
20260903141057 79 90 1.0 3.0 0.00 0.00 0.00 86 1017.5
20260903140016 78 239 0.0 3.0 0.00 0.00 0.00 88 1017.5
20260903135016 78 113 0.0 1.0 0.00 0.00 0.00 88 1017.7
20260903134036 78 0.0 2.0 0.00 0.00 0.00 88 1017.7
20260903133016 78 169 1.0 3.0 0.00 0.00 0.00 88 1017.6
20260903132016 77 194 0.0 2.0 0.00 0.00 0.00 90 1017.5
20260903131037 76 246 0.0 3.0 0.00 0.00 0.00 90 1017.8
20260903130016 76 101 0.0 2.0 0.00 0.00 0.00 91 1017.8
20260903125016 75 101 0.0 1.0 0.00 0.00 0.00 91 1017.9
20260903124056 75 166 0.0 2.0 0.00 0.00 0.00 91 1017.7
20260903123015 74 69 0.0 2.0 0.00 0.00 0.00 91 1017.7
20260903122016 74 73 0.0 2.0 0.00 0.00 0.00 91 1017.4
20260903121016 73 0.0 0.0 0.00 0.00 0.00 91 1017.3
20260903120016 73 0.0 0.0 0.00 0.00 0.00 91 1017.0
20260903115016 73 0.0 0.0 0.00 0.00 0.00 91 1016.9
20260903114016 73 0.0 0.0 0.00 0.00 0.00 91 1016.9
20260903113016 73 0.0 0.0 0.00 0.00 0.00 91 1016.9
20260903112015 73 0.0 0.0 0.00 0.00 0.00 91 1016.8
20260903111016 73 0.0 0.0 0.00 0.00 0.00 91 1016.8
20260903110036 73 0.0 0.0 0.00 0.00 0.00 91 1016.8
20260903105016 73 0.0 0.0 0.00 0.00 0.00 91 1016.8
20260903104016 74 0.0 0.0 0.00 0.00 0.00 91 1016.8
20260903103016 74 0.0 0.0 0.00 0.00 0.00 90 1016.9
20260903102016 74 0.0 0.0 0.00 0.00 0.00 90 1016.9
20260903101016 74 0.0 0.0 0.00 0.00 0.00 90 1016.9
20260903100036 74 0.0 0.0 0.00 0.00 0.00 90 1016.8
20260903095016 74 0.0 0.0 0.00 0.00 0.00 90 1016.7
20260903094015 74 0.0 0.0 0.00 0.00 0.00 90 1016.7
20260903093016 75 0.0 0.0 0.00 0.00 0.00 89 1016.8
20260903092016 75 0.0 0.0 0.00 0.00 0.00 89 1016.7
20260903091016 75 0.0 0.0 0.00 0.00 0.00 89 1016.6
20260903090016 75 0.0 0.0 0.00 0.00 0.00 89 1016.7
20260903085015 75 0.0 0.0 0.00 0.00 0.00 89 1016.7
20260903084016 76 0.0 0.0 0.00 0.00 0.00 89 1017.0
20260903083016 76 0.0 0.0 0.00 0.00 0.00 88 1016.9
20260903082036 76 0.0 0.0 0.00 0.00 0.00 88 1017.0
20260903081016 77 0.0 0.0 0.00 0.00 0.00 87 1016.8
20260903080016 77 0.0 0.0 0.00 0.00 0.00 87 1016.8
20260903075056 77 0.0 0.0 0.00 0.00 0.00 86 1016.6
20260903074015 77 0.0 0.0 0.00 0.00 0.00 86 1016.5
20260903073016 77 0.0 0.0 0.00 0.00 0.00 86 1016.5
20260903072015 78 228 0.0 1.0 0.00 0.00 0.00 86 1016.6
20260903071016 78 0.0 1.0 0.00 0.00 0.00 85 1016.5
20260903070015 78 127 0.0 1.0 0.00 0.00 0.00 85 1016.6
20260903065015 78 125 0.0 1.0 0.00 0.00 0.00 85 1016.6
20260903064015 78 0.0 0.0 0.00 0.00 0.00 85 1016.7
20260903062015 79 217 0.0 1.0 0.00 0.00 0.00 85 1016.8
20260903061015 79 203 0.0 1.0 0.00 0.00 0.00 85 1016.8
20260903060016 78 253 0.0 1.0 0.00 0.00 0.00 85 1016.8
20260903055016 78 131 0.0 2.0 0.00 0.00 0.00 85 1016.8
20260903054016 78 138 0.0 2.0 0.00 0.00 0.00 86 1016.7
20260903053015 78 139 0.0 1.0 0.00 0.00 0.00 86 1016.6
20260903052015 78 0.0 1.0 0.00 0.00 0.00 86 1016.6
20260903051015 78 347 0.0 1.0 0.00 0.00 0.00 86 1016.4
20260903050017 79 0.0 0.0 0.00 0.00 0.00 86 1016.3
20260903045015 79 3 0.0 1.0 0.00 0.00 0.00 86 1016.1
20260903044015 79 244 0.0 3.0 0.00 0.00 0.00 86 1016.0
20260903043016 78 230 1.0 3.0 0.00 0.00 0.00 87 1015.9
20260903042015 78 258 0.0 2.0 0.00 0.00 0.00 87 1015.9
20260903041016 78 249 0.0 2.0 0.00 0.00 0.00 87 1015.8
20260903040015 78 131 0.0 1.0 0.00 0.00 0.00 87 1015.6
20260903035016 78 112 0.0 2.0 0.00 0.00 0.00 87 1015.7
20260903034037 78 95 0.0 1.0 0.00 0.00 0.00 87 1015.8
20260903033017 78 97 0.0 1.0 0.00 0.00 0.00 88 1015.9
20260903032017 78 0.0 0.0 0.00 0.00 0.00 88 1016.1
20260903031017 78 0.0 0.0 0.00 0.00 0.00 88 1016.1
20260903030016 78 0.0 0.0 0.00 0.00 0.00 88 1016.2
20260903025017 79 0.0 0.0 0.00 0.00 0.00 88 1016.4
20260903024016 79 0.0 0.0 0.00 0.00 0.00 88 1016.4
20260903023017 79 0.0 0.0 0.00 0.00 0.00 88 1016.4
20260903022016 79 103 0.0 1.0 0.00 0.00 0.00 87 1016.4
20260903021016 79 0.0 0.0 0.00 0.00 0.00 87 1016.2
20260903020016 79 0.0 1.0 0.00 0.00 0.00 88 1016.3
20260903015017 79 103 0.0 1.0 0.00 0.00 0.00 88 1016.3
20260903014017 79 103 0.0 1.0 0.00 0.00 0.00 87 1016.4
20260903013017 79 0.0 0.0 0.00 0.00 0.00 87 1016.3
20260903012016 79 0.0 0.0 0.00 0.00 0.00 87 1016.2
20260903011016 80 0.0 0.0 0.00 0.00 0.00 86 1016.2
20260903010016 80 0.0 0.0 0.00 0.00 0.00 85 1016.1
20260903005016 80 0.0 1.0 0.00 0.00 0.00 84 1015.9
20260903004037 80 103 0.0 1.0 0.00 0.00 0.00 84 1015.8
20260903003016 81 0.0 0.0 0.00 0.00 0.00 83 1015.7
20260903002017 81 0.0 0.0 0.00 0.00 0.00 82 1015.5
20260903001016 82 0.0 0.0 0.00 0.00 0.00 81 1015.6
20260903000016 82 0.0 0.0 0.00 0.00 0.00 80 1015.5
20260902235016 82 0.0 0.0 0.00 0.00 0.00 79 1015.5
20260902234015 83 103 0.0 1.0 0.00 0.00 0.00 77 1015.5
20260902233056 83 103 0.0 1.0 0.00 0.00 0.00 77 1015.6
20260902232015 84 123 0.0 2.0 0.00 0.00 0.00 76 1015.7
20260902231017 85 90 0.0 1.0 0.00 0.00 0.00 76 1015.7
20260902230015 86 72 0.0 2.0 0.00 0.00 0.00 73 1015.7
20260902225015 87 91 0.0 3.0 0.00 0.00 0.00 71 1015.8
20260902224015 87 224 1.0 4.0 0.00 0.00 0.00 71 1015.9
20260902223015 88 104 1.0 2.0 0.00 0.00 0.00 72 1015.8
20260902222015 88 94 0.0 1.0 0.00 0.00 0.00 71 1015.8
20260902221015 90 105 0.0 3.0 0.00 0.00 0.00 66 1015.8
20260902220015 92 203 0.0 5.0 0.00 0.00 0.00 61 1016.0
20260902215015 93 249 1.0 2.0 0.00 0.00 0.00 60 1016.1
20260902214035 93 230 1.0 6.0 0.00 0.00 0.00 57 1016.2
20260902213015 94 153 2.0 7.0 0.00 0.00 0.00 56 1016.4
20260902212015 94 196 2.0 5.0 0.00 0.00 0.00 54 1016.3
20260902211015 94 193 1.0 4.0 0.00 0.00 0.00 54 1016.3
20260902210015 94 193 1.0 6.0 0.00 0.00 0.00 56 1016.4
20260902205016 94 179 1.0 5.0 0.00 0.00 0.00 55 1016.5
20260902204102 95 254 1.0 6.0 0.00 0.00 0.00 54 1016.6
20260902203015 95 197 1.0 6.0 0.00 0.00 0.00 52 1016.7
20260902202016 95 219 1.0 6.0 0.00 0.00 0.00 50 1016.8
20260902201015 95 227 2.0 7.0 0.00 0.00 0.00 53 1016.9
20260902200015 95 208 1.0 4.0 0.00 0.00 0.00 56 1017.0
20260902195619 95 233 1.0 1.0 0.00 0.00 0.00 57 1017.0
20260902195016 95 256 2.0 4.0 0.00 0.00 0.00 54 1017.1
20260902194016 94 159 1.0 6.0 0.00 0.00 0.00 54 1017.1